When you browse on this site, cookies collect data to enhance your experience and personalize the content and advertising you see.
Visit our Privacy Policy to learn more. By continuing to use the site, you agree to this use of cookies and data.
  • In Hungary
  • List of Countries
  • For 7 days
  • Water Temperature
  • Weather Map
  • News
  • Weather Widgets
  • user-avatar
    Login

    Hourly Weather Zvonarevka

    Today, 24 January, Friday

    Time Temperature Precipitation Wind Pressure Humidity
    00:00 -12°C° 0 mm 3 mps 753 mmHg 90%
    01:00 -13°C° 0 mm 3 mps 753 mmHg 90%
    02:00 -14°C° 0 mm 3 mps 754 mmHg 90%
    03:00 -14°C° 0 mm 3 mps 754 mmHg 90%
    04:00 -14°C° 0 mm 3 mps 755 mmHg 90%
    05:00 -14°C° 0 mm 3 mps 755 mmHg 91%
    06:00 -15°C° 0 mm 3 mps 756 mmHg 91%
    07:00 -15°C° 0 mm 3 mps 757 mmHg 91%
    08:00 -15°C° 0 mm 3 mps 757 mmHg 91%
    09:00 -15°C° 0 mm 3 mps 758 mmHg 91%
    10:00 -14°C° 0 mm 3 mps 758 mmHg 90%
    11:00 -13°C° 0 mm 3 mps 758 mmHg 89%
    12:00 -12°C° 0 mm 4 mps 758 mmHg 88%
    13:00 -12°C° 0 mm 4 mps 758 mmHg 88%
    14:00 -12°C° 0 mm 4 mps 758 mmHg 87%
    15:00 -12°C° 0 mm 4 mps 758 mmHg 86%
    16:00 -12°C° 0 mm 4 mps 758 mmHg 87%
    17:00 -12°C° 0 mm 4 mps 757 mmHg 88%
    18:00 -14°C° 0 mm 4 mps 757 mmHg 88%
    19:00 -13°C° 0 mm 5 mps 757 mmHg 88%
    20:00 -12°C° 0 mm 5 mps 756 mmHg 88%
    21:00 -11°C° 0 mm 6 mps 756 mmHg 88%
    22:00 -10°C° 0.2 mm 6 mps 755 mmHg 88%
    23:00 -9°C° 0.2 mm 7 mps 754 mmHg 88%

    Tomorrow, 25 January, Saturday

    Time Temperature Precipitation Wind Pressure Humidity
    00:00 -8°C° 0.2 mm 8 mps 753 mmHg 88%
    01:00 -8°C° 0.5 mm 8 mps 752 mmHg 90%
    02:00 -7°C° 0.5 mm 8 mps 751 mmHg 91%
    03:00 -7°C° 0.5 mm 8 mps 750 mmHg 93%
    04:00 -6°C° 0.3 mm 8 mps 750 mmHg 91%
    05:00 -5°C° 0.3 mm 8 mps 749 mmHg 89%
    06:00 -4°C° 0.3 mm 8 mps 748 mmHg 87%
    07:00 -3°C° 0 mm 7 mps 749 mmHg 90%
    08:00 -2°C° 0 mm 6 mps 749 mmHg 93%
    09:00 0°C° 0 mm 5 mps 749 mmHg 96%
    10:00 0°C° 0 mm 5 mps 749 mmHg 94%
    11:00 0°C° 0 mm 5 mps 750 mmHg 92%
    12:00 0°C° 0 mm 5 mps 750 mmHg 90%
    13:00 0°C° 0 mm 5 mps 749 mmHg 93%
    14:00 -1°C° 0 mm 5 mps 749 mmHg 96%
    15:00 -2°C° 0 mm 6 mps 749 mmHg 99%
    16:00 -2°C° 0.1 mm 6 mps 748 mmHg 98%
    17:00 -2°C° 0.1 mm 6 mps 748 mmHg 97%
    18:00 -2°C° 0.1 mm 6 mps 748 mmHg 97%
    19:00 -2°C° 0.1 mm 7 mps 747 mmHg 97%
    20:00 -2°C° 0.1 mm 7 mps 747 mmHg 97%
    21:00 -2°C° 0.1 mm 7 mps 746 mmHg 97%
    22:00 -2°C° 0.1 mm 8 mps 746 mmHg 96%
    23:00 -3°C° 0.1 mm 9 mps 745 mmHg 96%

    Day after tomorrow, 26 January, Sunday

    Time Temperature Precipitation Wind Pressure Humidity
    00:00 -3°C° 0.1 mm 9 mps 745 mmHg 95%
    01:00 -3°C° 0.1 mm 9 mps 745 mmHg 89%
    02:00 -4°C° 0.1 mm 9 mps 745 mmHg 84%
    03:00 -5°C° 0.1 mm 9 mps 745 mmHg 78%
    04:00 -6°C° 0 mm 9 mps 746 mmHg 79%
    05:00 -6°C° 0 mm 8 mps 746 mmHg 81%
    06:00 -7°C° 0 mm 8 mps 747 mmHg 82%
    07:00 -7°C° 0 mm 8 mps 748 mmHg 82%
    08:00 -7°C° 0 mm 8 mps 748 mmHg 82%
    09:00 -8°C° 0 mm 8 mps 749 mmHg 83%
    10:00 -8°C° 0 mm 9 mps 749 mmHg 82%
    11:00 -8°C° 0 mm 9 mps 750 mmHg 81%
    12:00 -6°C° 0 mm 9 mps 751 mmHg 80%
    13:00 -6°C° 0 mm 9 mps 751 mmHg 81%
    14:00 -6°C° 0 mm 8 mps 752 mmHg 81%
    15:00 -6°C° 0 mm 8 mps 753 mmHg 81%
    16:00 -7°C° 0 mm 7 mps 754 mmHg 82%
    17:00 -6°C° 0 mm 6 mps 755 mmHg 83%
    18:00 -8°C° 0 mm 6 mps 756 mmHg 84%
    19:00 -8°C° 0 mm 6 mps 757 mmHg 85%
    20:00 -8°C° 0 mm 6 mps 758 mmHg 85%
    21:00 -8°C° 0 mm 6 mps 758 mmHg 86%
    22:00 -8°C° 0 mm 5 mps 759 mmHg 86%
    23:00 -8°C° 0 mm 5 mps 759 mmHg 86%

    27 January, Monday

    Time Temperature Precipitation Wind Pressure Humidity
    00:00 -10°C° 0 mm 5 mps 759 mmHg 87%
    01:00 -10°C° 0 mm 5 mps 759 mmHg 86%
    02:00 -10°C° 0 mm 5 mps 759 mmHg 86%
    03:00 -10°C° 0 mm 5 mps 759 mmHg 86%
    04:00 -10°C° 0 mm 5 mps 759 mmHg 86%
    05:00 -8°C° 0 mm 5 mps 759 mmHg 86%
    06:00 -8°C° 0 mm 5 mps 759 mmHg 86%
    07:00 -7°C° 0 mm 5 mps 759 mmHg 87%
    08:00 -7°C° 0 mm 5 mps 759 mmHg 87%
    09:00 -7°C° 0 mm 5 mps 759 mmHg 88%
    10:00 -6°C° 0 mm 5 mps 759 mmHg 88%
    11:00 -5°C° 0 mm 5 mps 759 mmHg 88%
    12:00 -4°C° 0 mm 5 mps 759 mmHg 87%
    13:00 -2°C° 0 mm 5 mps 759 mmHg 88%
    14:00 -2°C° 0 mm 5 mps 758 mmHg 88%
    15:00 -2°C° 0 mm 5 mps 758 mmHg 88%
    16:00 -1°C° 0 mm 5 mps 758 mmHg 89%
    17:00 -1°C° 0 mm 5 mps 759 mmHg 89%
    18:00 -1°C° 0 mm 5 mps 759 mmHg 90%
    19:00 -1°C° 0 mm 5 mps 759 mmHg 90%
    20:00 -1°C° 0 mm 5 mps 759 mmHg 91%
    21:00 -1°C° 0 mm 5 mps 759 mmHg 91%
    22:00 -1°C° 0 mm 5 mps 759 mmHg 91%
    23:00 -1°C° 0 mm 5 mps 760 mmHg 91%

    28 January, Tuesday

    Time Temperature Precipitation Wind Pressure Humidity
    00:00 -1°C° 0 mm 5 mps 760 mmHg 91%
    01:00 -1°C° 0 mm 5 mps 760 mmHg 91%
    02:00 -2°C° 0 mm 4 mps 760 mmHg 91%
    03:00 -2°C° 0 mm 4 mps 760 mmHg 92%
    04:00 -3°C° 0 mm 4 mps 760 mmHg 91%
    05:00 -3°C° 0 mm 4 mps 760 mmHg 91%
    06:00 -4°C° 0 mm 4 mps 760 mmHg 91%
    07:00 -4°C° 0 mm 3 mps 760 mmHg 91%
    08:00 -2°C° 0 mm 3 mps 760 mmHg 91%
    09:00 -2°C° 0 mm 3 mps 760 mmHg 91%
    10:00 -3°C° 0 mm 4 mps 760 mmHg 90%
    11:00 -2°C° 0 mm 4 mps 760 mmHg 90%
    12:00 -2°C° 0 mm 4 mps 760 mmHg 90%
    13:00 -2°C° 0 mm 4 mps 760 mmHg 90%
    14:00 -1°C° 0 mm 3 mps 760 mmHg 91%
    15:00 -1°C° 0 mm 3 mps 760 mmHg 91%
    16:00 -1°C° 0 mm 3 mps 760 mmHg 92%
    17:00 -1°C° 0 mm 3 mps 760 mmHg 92%
    18:00 -1°C° 0 mm 2 mps 761 mmHg 92%
    19:00 -2°C° 0 mm 2 mps 761 mmHg 92%
    20:00 -3°C° 0 mm 2 mps 761 mmHg 92%
    21:00 -3°C° 0 mm 2 mps 761 mmHg 92%
    22:00 -3°C° 0 mm 2 mps 761 mmHg 92%
    23:00 -2°C° 0 mm 1 mps 761 mmHg 92%

    29 January, Wednesday

    Time Temperature Precipitation Wind Pressure Humidity
    00:00 -2°C° 0 mm 1 mps 761 mmHg 92%
    01:00 -1°C° 0 mm 1 mps 761 mmHg 93%
    02:00 -1°C° 0 mm 1 mps 762 mmHg 94%
    03:00 -1°C° 0 mm 1 mps 762 mmHg 95%
    04:00 -1°C° 0.1 mm 1 mps 762 mmHg 95%
    05:00 -1°C° 0.1 mm 1 mps 762 mmHg 96%
    06:00 -3°C° 0.1 mm 2 mps 762 mmHg 97%
    07:00 -3°C° 0.1 mm 2 mps 762 mmHg 97%
    08:00 -3°C° 0.1 mm 2 mps 762 mmHg 97%
    09:00 -3°C° 0.1 mm 2 mps 763 mmHg 97%
    10:00 -2°C° 0 mm 2 mps 763 mmHg 97%
    11:00 -2°C° 0 mm 2 mps 763 mmHg 96%
    12:00 -1°C° 0 mm 2 mps 763 mmHg 96%
    13:00 -1°C° 0 mm 2 mps 763 mmHg 96%
    14:00 -1°C° 0 mm 2 mps 762 mmHg 96%
    15:00 -1°C° 0 mm 2 mps 762 mmHg 96%
    16:00 -2°C° 0 mm 2 mps 763 mmHg 96%
    17:00 -2°C° 0 mm 2 mps 763 mmHg 96%
    18:00 -3°C° 0 mm 2 mps 763 mmHg 96%
    19:00 -3°C° 0.1 mm 2 mps 763 mmHg 97%
    20:00 -3°C° 0.1 mm 2 mps 763 mmHg 97%
    21:00 -4°C° 0.1 mm 3 mps 763 mmHg 97%
    22:00 -4°C° 0 mm 3 mps 763 mmHg 97%
    23:00 -3°C° 0 mm 2 mps 763 mmHg 97%
    Show more